VIASAT-2

Last updated on Mon Oct 20 2025 00:02:49 GMT+0000 (Coordinated Universal Time)

1 42740U 17029A 25292.25345047 -.00000268 00000+0 00000+0 0 9991 2 42740 0.0181 261.0981 0000232 263.7249 244.5189 1.00273190 30780
UTC large
Height (km)
Speed (km/s)
/
Latitude / Longitude
Inclination (degrees)
Orbital Period (minutes)
Azimuth
Elevation
Range (km)
Doppler Factor

Next 0 passes for location: London (51.5072 / 0.1276)

Sorry there are no passes over London.